When you browse on this site, cookies collect data to enhance your experience and personalize the content and advertising you see.
Visit our Privacy Policy to learn more. By continuing to use the site, you agree to this use of cookies and data.
  • In Denmark
  • List of Countries
  • For 7 days
  • Water Temperature
  • Weather Map
  • Weather Widgets
  • user-avatar
    Login

    Hourly Weather Przystan

    Today, 1 June, Monday

    Time Temperature Precipitation Wind Pressure Humidity
    00:00 +10°C° 0 mm 4 mps 757 mmHg 79%
    01:00 +10°C° 0 mm 4 mps 757 mmHg 82%
    02:00 +8°C° 0 mm 4 mps 757 mmHg 82%
    03:00 +8°C° 0 mm 4 mps 757 mmHg 82%
    04:00 +7°C° 0 mm 4 mps 757 mmHg 83%
    05:00 +8°C° 0 mm 4 mps 758 mmHg 78%
    06:00 +11°C° 0 mm 4 mps 758 mmHg 73%
    07:00 +13°C° 0 mm 5 mps 758 mmHg 68%
    08:00 +14°C° 0 mm 6 mps 758 mmHg 62%
    09:00 +15°C° 0 mm 6 mps 758 mmHg 56%
    10:00 +16°C° 0 mm 7 mps 758 mmHg 49%
    11:00 +16°C° 0 mm 7 mps 758 mmHg 50%
    12:00 +17°C° 0 mm 6 mps 758 mmHg 51%
    13:00 +17°C° 0 mm 6 mps 758 mmHg 52%
    14:00 +17°C° 0 mm 6 mps 758 mmHg 54%
    15:00 +17°C° 0 mm 6 mps 758 mmHg 56%
    16:00 +16°C° 0 mm 6 mps 758 mmHg 58%
    17:00 +15°C° 0 mm 5 mps 757 mmHg 63%
    18:00 +14°C° 0 mm 4 mps 757 mmHg 68%
    19:00 +13°C° 0 mm 3 mps 757 mmHg 73%
    20:00 +12°C° 0 mm 3 mps 757 mmHg 77%
    21:00 +11°C° 0 mm 4 mps 757 mmHg 82%
    22:00 +8°C° 0 mm 4 mps 756 mmHg 87%
    23:00 +8°C° 0 mm 4 mps 756 mmHg 87%

    Tomorrow, 2 June, Tuesday

    Time Temperature Precipitation Wind Pressure Humidity
    00:00 +8°C° 0 mm 4 mps 756 mmHg 88%
    01:00 +8°C° 0 mm 4 mps 756 mmHg 89%
    02:00 +7°C° 0 mm 4 mps 756 mmHg 91%
    03:00 +7°C° 0 mm 4 mps 755 mmHg 93%
    04:00 +7°C° 0 mm 3 mps 755 mmHg 95%
    05:00 +8°C° 0 mm 4 mps 755 mmHg 86%
    06:00 +11°C° 0 mm 4 mps 755 mmHg 78%
    07:00 +12°C° 0 mm 5 mps 756 mmHg 70%
    08:00 +13°C° 0 mm 5 mps 755 mmHg 65%
    09:00 +15°C° 0 mm 5 mps 755 mmHg 59%
    10:00 +16°C° 0 mm 5 mps 755 mmHg 54%
    11:00 +16°C° 0 mm 5 mps 754 mmHg 53%
    12:00 +17°C° 0 mm 5 mps 754 mmHg 52%
    13:00 +17°C° 0 mm 5 mps 754 mmHg 52%
    14:00 +17°C° 0 mm 5 mps 753 mmHg 53%
    15:00 +16°C° 0 mm 6 mps 752 mmHg 54%
    16:00 +16°C° 0 mm 6 mps 752 mmHg 55%
    17:00 +15°C° 0 mm 5 mps 752 mmHg 60%
    18:00 +13°C° 0 mm 4 mps 751 mmHg 66%
    19:00 +12°C° 0 mm 4 mps 751 mmHg 72%
    20:00 +11°C° 0 mm 4 mps 751 mmHg 76%
    21:00 +9°C° 0 mm 3 mps 751 mmHg 81%
    22:00 +8°C° 0 mm 3 mps 751 mmHg 86%
    23:00 +7°C° 0 mm 3 mps 751 mmHg 87%

    Day after tomorrow, 3 June, Wednesday

    Time Temperature Precipitation Wind Pressure Humidity
    00:00 +7°C° 0 mm 3 mps 750 mmHg 89%
    01:00 +5°C° 0 mm 3 mps 750 mmHg 90%
    02:00 +5°C° 0 mm 3 mps 750 mmHg 91%
    03:00 +5°C° 0 mm 3 mps 749 mmHg 92%
    04:00 +6°C° 0 mm 2 mps 749 mmHg 93%
    05:00 +8°C° 0 mm 3 mps 749 mmHg 86%
    06:00 +10°C° 0 mm 3 mps 749 mmHg 79%
    07:00 +12°C° 0 mm 3 mps 749 mmHg 72%
    08:00 +14°C° 0 mm 3 mps 749 mmHg 66%
    09:00 +15°C° 0 mm 4 mps 748 mmHg 59%
    10:00 +16°C° 0 mm 5 mps 748 mmHg 52%
    11:00 +17°C° 0.1 mm 4 mps 748 mmHg 54%
    12:00 +17°C° 0.1 mm 4 mps 748 mmHg 56%
    13:00 +18°C° 0.1 mm 4 mps 748 mmHg 58%
    14:00 +17°C° 0.1 mm 4 mps 747 mmHg 61%
    15:00 +17°C° 0.1 mm 4 mps 747 mmHg 64%
    16:00 +15°C° 0.1 mm 4 mps 746 mmHg 67%
    17:00 +15°C° 0 mm 4 mps 746 mmHg 71%
    18:00 +14°C° 0 mm 3 mps 746 mmHg 76%
    19:00 +13°C° 0 mm 3 mps 746 mmHg 80%
    20:00 +12°C° 0 mm 3 mps 746 mmHg 85%
    21:00 +11°C° 0 mm 3 mps 746 mmHg 90%
    22:00 +9°C° 0 mm 2 mps 746 mmHg 94%
    23:00 +9°C° 0 mm 2 mps 746 mmHg 95%

    4 June, Thursday

    Time Temperature Precipitation Wind Pressure Humidity
    00:00 +8°C° 0 mm 2 mps 746 mmHg 95%
    01:00 +8°C° 0 mm 2 mps 745 mmHg 95%
    02:00 +8°C° 0 mm 2 mps 745 mmHg 95%
    03:00 +8°C° 0 mm 2 mps 745 mmHg 95%
    04:00 +7°C° 0 mm 2 mps 745 mmHg 95%
    05:00 +10°C° 0 mm 1 mps 745 mmHg 89%
    06:00 +12°C° 0 mm 1 mps 744 mmHg 83%
    07:00 +14°C° 0 mm 1 mps 744 mmHg 76%
    08:00 +16°C° 0 mm 1 mps 744 mmHg 70%
    09:00 +18°C° 0 mm 1 mps 744 mmHg 63%
    10:00 +20°C° 0 mm 1 mps 744 mmHg 56%
    11:00 +20°C° 0 mm 1 mps 743 mmHg 54%
    12:00 +21°C° 0 mm 1 mps 743 mmHg 51%
    13:00 +22°C° 0 mm 1 mps 743 mmHg 48%
    14:00 +22°C° 0 mm 1 mps 742 mmHg 48%
    15:00 +22°C° 0 mm 1 mps 742 mmHg 48%
    16:00 +22°C° 0 mm 1 mps 742 mmHg 48%
    17:00 +21°C° 0 mm 1 mps 741 mmHg 55%
    18:00 +18°C° 0 mm 2 mps 741 mmHg 63%
    19:00 +17°C° 0 mm 2 mps 741 mmHg 71%
    20:00 +16°C° 0 mm 2 mps 741 mmHg 75%
    21:00 +14°C° 0 mm 3 mps 741 mmHg 79%
    22:00 +12°C° 0 mm 3 mps 741 mmHg 83%
    23:00 +12°C° 0 mm 3 mps 741 mmHg 84%

    5 June, Friday

    Time Temperature Precipitation Wind Pressure Humidity
    00:00 +11°C° 0 mm 3 mps 741 mmHg 86%
    01:00 +11°C° 0 mm 3 mps 740 mmHg 87%
    02:00 +11°C° 0 mm 3 mps 740 mmHg 88%
    03:00 +10°C° 0 mm 3 mps 740 mmHg 89%
    04:00 +10°C° 0 mm 4 mps 739 mmHg 90%
    05:00 +12°C° 0 mm 4 mps 739 mmHg 84%
    06:00 +14°C° 0 mm 5 mps 739 mmHg 78%
    07:00 +15°C° 0 mm 6 mps 739 mmHg 72%
    08:00 +17°C° 0 mm 6 mps 739 mmHg 71%
    09:00 +19°C° 0 mm 6 mps 739 mmHg 70%
    10:00 +21°C° 0 mm 7 mps 739 mmHg 69%
    11:00 +21°C° 0.3 mm 6 mps 739 mmHg 72%
    12:00 +20°C° 0.3 mm 5 mps 739 mmHg 76%
    13:00 +20°C° 0.3 mm 4 mps 739 mmHg 80%
    14:00 +19°C° 1 mm 5 mps 739 mmHg 83%
    15:00 +17°C° 1 mm 5 mps 739 mmHg 86%
    16:00 +16°C° 1 mm 6 mps 739 mmHg 88%
    17:00 +15°C° 0 mm 6 mps 740 mmHg 88%
    18:00 +15°C° 0 mm 5 mps 740 mmHg 88%
    19:00 +14°C° 0 mm 5 mps 741 mmHg 88%
    20:00 +13°C° 0 mm 4 mps 742 mmHg 90%
    21:00 +12°C° 0 mm 4 mps 742 mmHg 91%
    22:00 +12°C° 0 mm 3 mps 743 mmHg 93%
    23:00 +12°C° 0 mm 3 mps 743 mmHg 92%

    6 June, Saturday

    Time Temperature Precipitation Wind Pressure Humidity
    00:00 +13°C° 0 mm 2 mps 743 mmHg 92%
    01:00 +13°C° 0 mm 2 mps 744 mmHg 91%
    02:00 +12°C° 0 mm 2 mps 744 mmHg 90%
    03:00 +12°C° 0 mm 2 mps 744 mmHg 88%
    04:00 +12°C° 0 mm 2 mps 744 mmHg 86%
    05:00 +13°C° 0 mm 2 mps 745 mmHg 81%
    06:00 +13°C° 0 mm 3 mps 745 mmHg 76%
    07:00 +14°C° 0 mm 3 mps 745 mmHg 70%
    08:00 +16°C° 0 mm 3 mps 745 mmHg 66%
    09:00 +18°C° 0 mm 4 mps 746 mmHg 61%
    10:00 +19°C° 0 mm 4 mps 746 mmHg 56%
    11:00 +20°C° 0.1 mm 5 mps 746 mmHg 57%
    12:00 +20°C° 0.1 mm 5 mps 746 mmHg 57%
    13:00 +21°C° 0.1 mm 5 mps 746 mmHg 57%
    14:00 +20°C° 0.4 mm 5 mps 746 mmHg 63%
    15:00 +19°C° 0.4 mm 4 mps 746 mmHg 69%
    16:00 +18°C° 0.4 mm 4 mps 746 mmHg 74%
    17:00 +18°C° 0 mm 3 mps 746 mmHg 77%
    18:00 +17°C° 0 mm 3 mps 746 mmHg 79%
    19:00 +17°C° 0 mm 2 mps 746 mmHg 81%
    20:00 +15°C° 0 mm 2 mps 747 mmHg 83%
    21:00 +14°C° 0 mm 2 mps 747 mmHg 86%
    22:00 +13°C° 0 mm 2 mps 748 mmHg 88%
    23:00 +13°C° 0 mm 2 mps 748 mmHg 89%
    Show more